Location: Unspecified
(0.0000°N, 0.0000°E)
Time: 09:59:07
(UTC+02:00)

CZ-4B R/B - Visible Passes

Search period start: 28 May 2016 00:00
Search period end: 07 June 2016 00:00
Orbit: 488 x 659 km, 97.7° (Epoch: 27 May)

Date Brightness Start Highest point End Pass type
(mag) Time Alt. Az. Time Alt. Az. Time Alt. Az.
03 Jun 6.2 05:09:15 10° NNE 05:09:20 10° NNE 05:09:20 10° NNE visible
04 Jun 6.1 05:12:17 10° NNE 05:12:30 11° NNE 05:12:30 11° NNE visible
05 Jun 6.0 05:15:19 10° NNE 05:15:39 12° NNE 05:15:39 12° NNE visible
06 Jun 5.9 05:18:22 10° NNE 05:18:48 13° NNE 05:18:48 13° NNE visible
